Regional Weather Roundup
Issued by NWS Upton, NY

Current Version | Previous Version | Text Only | Print | Product List | Glossary On
Versions: 1 2 3 4 5 6 7 8 9 10 11 12 13 14 15 16 17 18 19 20 21 22 23 24 25 26 27 28 29 30 31 32 33 34 35 36 37 38 39 40 41 42 43 44 45 46 47 48 49 50
000
ASUS41 KOKX 281808
RWROKX

REGIONAL WEATHER ROUNDUP
NATIONAL WEATHER SERVICE NEW YORK NY
200 PM EDT TUE MAR 28 2017

NOTE: "FAIR" INDICATES FEW OR NO CLOUDS BELOW 12,000 FEET WITH NO
SIGNIFICANT WEATHER AND/OR OBSTRUCTIONS TO VISIBILITY.

NYZ071-072-176-178-NJZ106-104-281900-
NEW YORK CITY METRO AREA

CITY           SKY/WX    TMP DP  RH WIND       PRES   REMARKS
Central Park   LGT RAIN  43  42  97 VRB6      29.96R FOG
Wall St Helipt LGT RAIN  44  43  96 NE8       29.96F FOG
LaGuardia APRT LGT RAIN  43  40  89 NE10      29.94R FOG
Kennedy INTL   RAIN      47  46  97 NE3       29.95R
Breezy Point     N/A     43 N/A N/A E8          N/A
Newark/Liberty RAIN      45  45 100 N5        29.94R FOG
Teterboro      LGT RAIN  45  43  93 E5        29.94R FOG
$$

NYZ177-179-078>081-281900-
LONG ISLAND NEW YORK

CITY           SKY/WX    TMP DP  RH WIND       PRES   REMARKS
Jones Beach      N/A     43 N/A N/A E13         N/A
Matinecock PT    N/A     37 N/A N/A E12         N/A  WCI  30
Farmingdale    LGT RAIN  46  45  96 E8        29.92F
MacArthur/ISP  LGT RAIN  45  44  97 E9        29.92F
Shirley        LGT RAIN  42  42 100 VRB6      29.95S
Westhampton    RAIN      41  39  93 E9        29.96S FOG
East Hampton   RAIN      40  38  95 E9        29.96F WCI  33
Montauk          N/A     41  39  93 E6        30.01R
$$

NYZ052-065-067-281900-
HUDSON VALLEY

CITY           SKY/WX    TMP DP  RH WIND       PRES   REMARKS
White Plains   LGT RAIN  43  42  97 SE3       29.93R FOG
Newburgh       CLOUDY    45  45 100 E6        29.94R FOG
Montgomery     CLOUDY    46  44  93 SE5       29.93R
Poughkeepsie   CLOUDY    44  42  93 NE5       29.94R FOG
Albany         LGT RAIN  48  43  82 S7        29.92F
$$

NJZ001-105-106-008-010-013-015-019>022-104-281900-
NEW JERSEY

CITY           SKY/WX    TMP DP  RH WIND       PRES   REMARKS
Newark/Liberty RAIN      45  45 100 N5        29.94R FOG
Teterboro      LGT RAIN  45  43  93 E5        29.94R FOG
Caldwell       LGT RAIN  45  43  93 CALM      29.96R FOG
Somerville     LGT RAIN  48  46  93 NE7       29.88F FOG
Linden         RAIN      47  45  93 CALM      29.94S
Sussex         RAIN      47  46  97 NE6       29.91F FOG
Andover          N/A     47  45  93 NE3       29.90F
Trenton        LGT RAIN  48  46  93 NE10      29.86F
Millville      CLOUDY    59  59 100 E3        29.84R
Atlantic City  RAIN      54  51  90 E8        29.85F FOG
Wrightstown    LGT RAIN  51  51  98 N13       29.82F
Toms River     LGT RAIN  50  50 100 NE8       29.87F
Belmar         LGT RAIN  46  45  96 E9        29.91F
$$

PAZ047>061-062-071-281900-
EASTERN PENNSYLVANIA

CITY           SKY/WX    TMP DP  RH WIND       PRES   REMARKS
Philadelphia   CLOUDY    53  51  93 NE12      29.84F
Allentown      LGT RAIN  50  47  89 E12       29.85F
Scranton       RAIN      51  50  96 E6        29.87F FOG
$$

CTZ002-004>006-009-010-012-RIZ004-006-007-MAZ004-011-015-281900-
SOUTHERN NEW ENGLAND
 IN CT

CITY           SKY/WX    TMP DP  RH WIND       PRES   REMARKS
Bradley INTL   LGT RAIN  43  41  93 SW5       29.99R FOG
Hartford       CLOUDY    44  42  93 CALM      29.99S FOG
Danbury        LGT RAIN  43  42  97 E5        29.94S
Wtrbury/Oxford LGT RAIN  41  37  87 E5        29.94F VSB 3/4
Bridgeport     LGT RAIN  41  38  89 E15       29.95F FOG
Meriden        LGT RAIN  44  42  93 NE3       29.96F FOG
New Haven      RAIN      41  39  93 NE10      29.95F FOG
Chester        NOT AVBL
Groton         RAIN      41  38  89 SE13      30.00R FOG
Wilimantic     CLOUDY    46  42  86 S3        30.00R

 IN RI

CITY           SKY/WX    TMP DP  RH WIND       PRES   REMARKS
Providence     LGT RAIN  43  39  86 CALM      30.00S
Block Island   LGT RAIN  39  38  96 CALM      30.03R
Westerly       LGT RAIN  43  40  89 S9        30.03R FOG
 IN MA

CITY           SKY/WX    TMP DP  RH WIND       PRES   REMARKS
Boston         CLOUDY    40  38  93 E9        30.01S WCI  34
Worcester      FOG       37  36  96 NE3       29.96S VSB 1/4
Westfield      LGT RAIN  42  41  96 SW3       29.98R FOG
Provincetown   CLOUDY    43  39  86 E10       30.00S
Nantucket      PTSUNNY   45  38  76 NE13      29.98S
$$

ANZ330-335-338-340-345-350-353-355-281900-
COASTAL MARINE OBSERVATIONS


STATION/POSITION TIME  SKY/WX   TEMP    WIND        PRES    VSBY  WAVE
                                AIR SEA DIR/SP/G                  HT/PER
                 (UTC)          (F)     (DEG/KT/KT) (MB)    (MI)  (FT/S)
NY HARB ENTRANCE NOT AVBL
20 S FIRE ISLAND NOT AVBL
GREAT SOUTH BAY  NOT AVBL
23 SSW MONTAUK P NOT AVBL
15 E BARNEGAT LI NOT AVBL
HUDSON CANYON    NOT AVBL
KINGS POINT      1748            40 39              1013.7
EXECUTION ROCKS  NOT AVBL
CENTRAL LI SOUND 1715            39      70/ 12/ 14   N/A           1/ 3
EASTERN LI SOUND NOT AVBL
ROBBINS REEF     1748            44      50/  5/  6 1014.1
$$


>>>>>>>>>>>>>>>>>>>>>>>>>>>> KEY <<<<<<<<<<<<<<<<<<<<<<<<<<<
>                                                          <
>     SKY/WX - Sky Condition/Present Weather               <
>     TMP    - Temperature in Fahrenheit                   <
>     DP     - Dew Point in Fahrenheit                     <
>     RH     - Relative Humidity in Percent                <
>     WIND   - Direction (from) and Speed in MPH           <
>     PRES   - Mean Sea Level Pressure (inches of Hg)      <
>     WCI    - Wind Chill Index                            <
>     VSB    - VISIBILITY IN MILES                         <
>     HX     - HEAT INDEX                                  <
>     TC     - TEMPERATURE IN CELSIUS                      <
>     VRB    - VARIABLE WIND DIRECTION                     <
>                                                          <
>>>>>>>>>>>>>>>>>>>>>>>>>>>> KEY <<<<<<<<<<<<<<<<<<<<<<<<<<<



USA.gov is the U.S. government's official web portal to all federal, state and local government web resources and services.